User: anonymous
Location: Fort Wayne
(41.1310°N, 85.1290°W)
Time: 07:59:50
(UTC-04:00)
Language:

MetOp-A - Orbit

View from above orbital plane
View from above orbital plane
View from above satellite
View from above satellite

Ground track
Ground track

The orbit data is extracted from the following two-line orbital elements,

1 29499U 06044A   14250.47897977  .00000101  00000-0  46236-4 0  4382
2 29499 098.7181 309.0301 0000657 281.0147 079.1602 14.21486020409125
Epoch (UTC): 07 September 2014 11:29:43
Eccentricity: 0.0000657
inclination: 98.7181°
perigee height: 820 km
apogee height: 821 km
right ascension of ascending node: 309.0301°
argument of perigee: 281.0147°
revolutions per day: 14.21486020
mean anomaly at epoch: 79.1602°
orbit number at epoch: 40912

The dashed part of the orbit path shows where the satellite is in the earth's shadow,  

DLR